Location: Sungai Anya
(2.6167°N, 114.0500°E)
Time: 20:34:58
(UTC+00:00)

Cosmos 1153 Rocket - Pass Details

Date: 31 May 2022
Orbit: 954 x 1005 km, 82.9° (Epoch: 02 July)

Event Time Altitude Azimuth Distance (km) Brightness Sun altitude
Rises 10:47:15 0° 213° (SSW) 3,626 7.6 -5.0°
Reaches altitude 10° 10:50:26 10° 229° (SW) 2,680 7.2 -5.7°
Maximum altitude 10:54:43 20° 274° (W) 2,053 7.4 -6.7°
Drops below altitude 10° 10:59:01 10° 319° (NW) 2,684 8.0 -7.7°
Sets 11:02:15 0° 336° (NNW) 3,635 8.3 -8.4°
